SCP
-0 -0 -0 -0 -0 -0 -0 -0 -0 -0 -0 0 0 0 0 0 0 -0 -0 0 0 0 0 0 0 0 0 0 0 0 0 0 0 0 0 0 0 0 0 0 0 0 0
-0 -0 -0 -0 -0 -0 -0 -0 -0 -0 -0 -0 -0 -0 -0 0 0 0 0 0 0 0 0 0 0 0 0 0 0 0 0 0 0 0 0 0 0 0 0 0 0 0 0
-0 -0 -0 -0 -0 -0 0 0 0 0 0 0 0 0 0 0 0 0 0 0 0 0 0 0 0 0 0 0 0 0 0 0 0 0 -0 -0 0 0 0 0 0 0 0
-0 -0 0 0 0 0 0 0 0 0 0 0 0 0 0 0 0 0 0 0 0 0 0 0 0 0 0 0 0 0 0 0 0 0 0 0 0 0 0 0 0 0 0
-0 0 0 0 0 0 0 0 0 0 0 0 0 0 0 0 0 0 0 0 0 0 0 0 0 0 0 0 0 0 0 0 0 0 0 0 0 1 1 1 0 0 0
0 0 0 0 0 0 0 0 0 0 0 0 0 0 0 0 0 0 0 0 0 0 0 0 0 0 0 0 0 0 0 0 0 0 0 0 0 0 0 0 1 1 0
0 0 0 0 0 0 0 0 0 0 0 0 0 0 0 0 0 0 0 0 0 0 0 0 0 0 0 0 0 0 0 0 0 0 0 0 0 0 0 0 1 1 1
0 0 0 0 0 0 0 0 0 0 0 0 0 0 0 0 0 0 0 0 0 0 0 0 0 0 0 0 0 0 0 0 0 0 0 0 0 0 0 0 0 1 1
0 0 0 0 0 0 0 0 0 0 0 0 0 0 0 0 0 0 0 0 0 0 0 0 0 0 0 0 0 0 0 0 0 0 0 0 0 0 0 0 0 0 1
0 0 0 0 0 0 0 0 0 0 0 0 0 -0 -0 -0 -0 -0 0 0 0 0 0 0 0 0 0 0 0 0 0 0 0 0 0 0 0 0 0 0 0 0 0
0 0 0 0 0 0 0 0 0 0 -0 -0 0 -0 -0 -0 0 0 0 0 0 0 0 0 0 0 0 -0 -0 -0 0 0 0 0 0 0 0 0 0 0 0 1 1
0 0 0 0 0 0 0 0 0 0 0 0 0 0 -0 0 0 0 0 0 -0 -0 -0 -0 -0 0 0 0 0 -0 0 0 0 0 0 0 0 0 0 0 0 1 2
0 0 0 0 0 0 0 0 0 0 0 0 0 0 0 0 0 0 0 0 0 0 -0 0 0 0 0 0 0 0 0 0 0 0 0 0 0 0 0 0 0 1 2
0 0 0 0 0 0 0 0 0 0 0 0 0 0 0 0 0 0 0 0 0 0 0 0 0 0 0 0 0 0 0 0 0 0 0 0 0 0 0 0 0 0 1
0 0 0 0 0 0 0 0 0 0 0 0 0 0 0 0 0 0 0 0 0 0 0 0 0 0 0 0 0 0 0 0 0 0 0 0 0 0 0 0 0 0 1
0 0 0 0 0 0 0 0 0 0 0 0 0 0 0 0 0 0 0 0 0 0 0 0 0 0 0 0 0 0 0 0 0 0 0 0 0 0 0 0 0 0 0
0 0 0 0 0 0 0 0 0 0 0 0 0 0 0 0 0 0 0 0 0 0 0 0 0 0 0 0 0 0 0 0 0 0 0 0 0 0 0 0 0 0 0
0 0 0 0 0 0 0 0 0 0 0 0 0 0 0 0 0 0 0 0 0 0 0 0 0 0 0 0 0 0 0 0 0 0 0 0 0 0 0 0 0 0 0
0 0 0 0 0 0 0 0 0 0 0 0 0 0 0 0 0 0 0 0 0 0 0 0 0 0 0 0 0 0 0 0 0 0 0 0 0 0 0 0 0 0 0
0 0 0 0 0 0 0 0 0 0 0 0 0 0 0 0 0 0 0 0 0 0 0 0 0 0 0 0 0 0 0 0 0 0 0 0 0 0 0 0 0 0 0
0 0 0 0 0 0 0 0 0 0 0 0 0 0 0 0 0 0 0 0 0 0 0 0 1 0 0 0 0 0 0 0 0 0 0 0 0 0 0 0 0 0 0
0 1 0 0 0 0 0 0 1 1 0 0 0 0 0 0 0 0 0 0 0 0 1 0 0 1 1 0 0 0 0 0 0 0 0 0 0 0 0 0 0 0 0
0 0 1 1 1 1 1 1 1 0 0 0 0 0 0 0 0 0 0 0 0 0 0 0 0 0 0 0 0 0 0 0 0 0 0 0 0 0 0 0 0 0 0
1 0 1 1 2 1 1 1 1 0 0 0 0 0 0 0 0 0 0 0 0 0 0 0 0 0 0 1 1 1 0 0 0 0 0 0 0 -0 1 0 0 0 0
1 0 1 1 0 0 1 0 0 0 0 0 0 1 1 1 0 0 0 0 0 0 0 0 0 0 0 1 1 1 1 1 1 0 0 0 1 0 0 0 0 0 0
1 0 -0 1 1 0 0 0 1 0 0 0 0 0 0 1 0 0 0 0 0 0 0 0 0 0 0 0 0 1 1 1 1 1 0 0 0 0 0 0 1 0 0
Wind_Speed_500mb
25 25 21 18 17 14 11 11 10 8 7 7 7 8 6 5 3 2 1 2 3 3 2 4 6 6 5 5 8 7 6 5 4 3 1 3 3 2 7 11 12 12 4
28 24 23 17 14 11 12 12 11 11 9 8 6 5 4 3 1 1 2 4 6 10 11 9 8 8 8 11 10 12 12 10 7 2 4 6 6 6 4 11 8 13 2
31 26 21 15 12 11 11 10 9 8 6 6 5 4 3 2 2 2 4 6 8 9 10 12 14 15 13 14 12 14 16 15 11 6 11 4 8 21 13 12 14 9 9
33 30 21 14 10 9 8 8 7 6 6 5 5 4 4 5 6 8 10 11 13 14 15 15 17 18 18 17 17 15 15 15 13 12 9 4 12 25 20 15 13 13 13
25 26 22 15 11 9 7 7 7 6 5 6 7 7 10 11 11 12 13 14 17 20 21 22 22 23 23 22 21 21 20 18 14 11 3 12 15 20 24 21 17 14 13
26 26 19 13 11 10 8 8 9 9 10 9 9 8 9 11 12 13 15 17 18 20 23 23 22 23 24 26 26 26 25 23 17 9 19 29 30 25 26 26 23 21 22
24 20 18 15 12 9 8 9 10 10 10 10 11 10 9 8 9 10 13 15 18 19 21 23 24 23 23 24 27 28 29 27 24 17 18 19 17 34 30 28 26 26 25
22 26 16 15 11 9 9 9 9 11 11 13 14 14 12 12 12 12 13 16 19 19 19 21 22 22 23 24 25 26 27 27 24 19 23 24 29 38 34 30 29 30 30
24 24 19 18 14 11 11 9 9 10 13 16 17 17 16 15 19 18 14 13 21 20 19 20 20 19 19 21 25 27 28 26 24 20 23 24 35 41 38 35 34 32 32
25 21 18 16 11 11 4 9 7 7 10 14 18 20 19 21 30 27 21 28 23 18 18 19 20 21 21 21 23 28 27 21 15 16 25 32 37 42 39 38 40 39 36
23 23 21 16 15 15 7 7 3 9 15 20 23 21 14 12 12 13 26 29 25 20 17 16 18 20 16 16 29 30 23 7 17 20 20 36 40 46 41 41 43 44 43
27 25 23 19 16 14 9 5 3 6 3 4 4 5 8 16 10 19 16 32 28 29 20 26 21 23 20 17 23 25 18 17 19 19 25 35 43 45 41 39 42 45 46
29 27 21 20 16 12 10 4 2 5 6 9 8 4 11 10 9 15 17 19 20 25 17 23 24 23 19 19 18 18 20 21 18 20 28 36 43 44 37 36 40 43 44
31 28 25 17 15 16 9 4 7 4 6 10 7 11 10 13 14 15 16 18 18 17 21 17 19 22 25 21 22 22 23 22 21 23 26 40 45 46 38 35 36 40 43
30 29 23 22 17 13 13 10 6 10 11 13 16 14 17 17 18 18 20 21 22 20 23 23 24 24 23 23 23 24 25 26 28 28 30 35 50 51 43 41 38 36 37
30 29 24 24 22 20 14 13 12 14 15 15 17 21 17 21 21 25 23 25 27 26 25 25 26 27 23 23 24 25 26 28 30 32 33 34 40 49 42 41 43 40 35
32 28 28 26 24 20 18 18 13 17 18 20 21 23 26 30 28 27 28 31 31 29 28 30 26 28 27 27 28 29 29 31 31 32 34 33 33 41 40 39 37 47 41
32 31 29 24 25 22 20 17 18 19 17 21 26 24 30 34 35 29 32 31 32 34 32 34 33 31 31 31 31 32 33 33 33 34 34 32 30 30 34 36 35 31 48
34 31 31 28 27 24 20 20 21 20 20 23 29 30 29 24 29 32 35 35 38 39 35 39 40 36 36 37 36 37 37 38 37 36 34 32 33 32 30 31 38 40 39
37 35 32 29 26 27 25 22 17 17 23 24 27 28 30 32 32 33 36 37 40 37 41 39 46 43 41 42 42 43 39 39 37 32 33 32 32 28 28 28 28 31 32
38 37 33 29 29 25 21 16 19 23 24 22 25 19 21 26 30 32 32 38 39 38 38 42 44 50 47 44 45 40 36 40 38 36 29 29 27 26 29 26 25 26 29
37 30 29 28 29 27 22 18 18 16 21 27 28 24 20 15 27 26 26 30 34 38 42 48 51 54 50 43 47 43 41 38 34 29 21 27 27 27 28 29 26 26 31
41 31 40 30 36 29 22 18 19 21 22 20 11 14 10 20 27 26 27 29 33 38 41 46 48 55 54 52 47 37 21 34 17 26 27 29 31 33 35 32 30 31 28
36 29 32 42 41 23 21 15 15 22 19 19 28 26 21 30 29 28 28 37 37 39 46 44 45 47 50 54 50 43 45 41 38 33 27 25 38 33 34 36 35 32 34
40 42 53 38 7 8 13 6 12 19 21 24 27 31 30 36 30 33 29 42 50 42 51 50 51 50 46 47 52 51 45 42 43 34 37 34 26 33 36 42 34 36 37
17 25 24 16 12 15 7 12 22 22 23 27 32 34 38 34 41 46 28 30 53 52 50 47 44 48 44 44 53 50 48 38 32 34 38 37 36 34 35 34 39 36 38
Wind_Direction_500mb
141 143 131 125 115 109 116 118 112 100 82 68 66 76 86 86 74 66 117 197 216 234 273 326 309 286 276 266 256 255 261 280 292 300 44 58 353 188 133 119 139 140 242
149 146 137 127 114 100 92 94 99 102 103 105 91 80 75 70 71 291 255 259 268 276 277 271 279 283 281 265 254 250 253 251 259 283 32 58 341 286 187 159 196 171 179
151 150 141 130 121 115 111 107 97 91 80 67 56 46 44 30 340 281 269 272 269 267 278 283 288 290 292 283 255 244 249 251 246 209 105 76 232 297 248 193 198 201 204
156 151 153 134 124 113 100 88 75 53 34 15 4 352 336 318 307 300 296 295 293 294 291 290 289 290 288 281 276 267 258 253 239 210 155 249 245 278 250 214 205 203 199
144 149 153 141 133 126 103 74 51 28 5 348 335 321 311 307 306 305 303 300 302 304 304 301 298 293 286 281 279 277 269 258 246 212 339 235 209 256 256 229 210 214 203
140 139 152 146 145 127 97 64 50 39 32 20 9 352 332 319 307 302 305 310 312 313 314 310 307 303 297 290 280 271 268 267 259 240 268 245 206 254 251 233 227 218 208
156 147 158 159 150 120 90 83 81 71 61 46 33 25 15 1 339 326 317 311 308 309 306 304 305 304 302 296 293 287 277 268 257 264 249 251 259 257 250 240 232 226 218
156 156 169 159 146 125 106 93 79 67 49 38 33 31 25 13 1 349 335 327 322 315 309 307 306 305 301 301 297 293 288 278 263 269 258 256 252 253 253 246 235 230 231
165 167 162 157 154 138 112 87 73 54 46 40 34 29 20 17 9 13 358 348 326 311 308 308 307 309 306 305 302 299 295 292 281 258 252 256 252 255 254 243 241 238 231
179 181 174 175 156 149 82 67 74 56 40 32 31 27 32 24 7 3 12 335 325 310 293 294 300 303 308 316 332 332 312 295 307 260 255 250 253 256 253 246 242 241 241
189 182 180 179 177 162 190 284 23 14 13 13 9 6 37 18 338 345 299 334 339 335 322 321 316 323 336 352 329 338 345 333 274 265 262 251 252 260 260 246 243 242 241
190 186 186 180 181 176 172 220 142 278 313 325 299 298 27 293 306 340 323 339 348 350 349 347 344 354 353 335 311 322 327 286 279 270 263 268 270 271 263 251 247 244 241
193 187 194 185 173 186 204 167 244 278 257 285 284 315 298 324 295 331 324 327 327 326 351 322 318 325 290 294 291 284 281 284 281 270 272 275 279 281 263 253 252 251 247
194 193 193 201 188 181 215 199 238 294 290 302 246 287 295 321 297 306 312 306 312 309 308 312 305 294 300 293 289 282 282 280 278 273 266 289 285 284 266 256 252 251 250
197 199 198 201 196 213 200 226 250 265 287 267 289 274 282 296 290 301 295 303 297 300 303 299 300 298 297 293 288 283 280 282 281 280 275 272 283 285 279 256 250 249 250
198 200 200 207 207 203 205 225 256 280 286 296 280 272 272 289 287 287 294 296 291 287 287 286 291 291 294 290 284 282 282 283 282 279 277 277 276 280 292 272 253 247 245
203 208 207 203 211 224 240 252 261 270 281 284 281 284 282 277 289 278 290 290 281 274 275 288 288 290 291 288 284 283 284 285 286 281 280 279 278 284 286 291 274 250 242
209 210 208 209 219 233 227 233 254 265 275 283 291 287 289 296 288 299 296 291 282 274 278 274 274 279 282 281 282 281 280 280 282 283 280 275 274 272 281 281 285 277 249
207 206 208 208 212 225 235 242 257 267 284 294 283 289 300 290 299 291 294 291 284 270 270 269 266 268 275 278 279 281 281 279 279 281 275 269 269 269 268 272 278 276 275
206 207 210 209 215 220 231 250 266 268 271 279 300 294 281 295 297 297 295 294 291 275 272 267 267 263 272 275 277 281 283 279 276 274 274 268 268 260 259 265 270 274 283
209 209 210 214 212 221 233 251 256 267 278 294 300 313 303 298 296 296 297 290 291 287 280 271 273 273 271 265 271 271 280 274 270 269 267 260 258 250 252 258 261 261 268
209 215 221 226 223 222 225 240 256 274 290 289 281 283 295 289 308 303 299 297 295 293 292 289 286 273 268 264 269 275 277 280 268 239 254 255 253 251 246 258 254 253 237
215 206 227 220 225 217 213 230 257 275 283 281 268 302 258 316 300 300 298 298 300 299 292 287 283 283 274 267 260 260 269 270 264 266 262 254 251 251 247 240 245 265 262
220 223 227 231 218 202 222 229 260 289 296 288 291 282 294 297 278 285 287 295 293 300 291 288 287 278 278 267 265 254 257 263 281 281 263 244 255 246 252 250 258 254 259
202 230 256 249 199 252 199 256 285 280 292 296 293 296 296 292 289 295 277 295 300 310 295 282 279 281 277 265 261 258 254 253 253 257 267 259 252 265 257 249 248 255 251
209 261 211 222 207 171 196 272 276 263 280 288 285 288 293 289 301 300 288 293 295 301 295 287 286 284 286 268 259 257 248 249 250 253 251 258 268 264 267 262 246 251 253
Wind_Speed_850mb
25 25 21 18 17 14 11 11 10 8 7 7 7 8 6 5 3 2 1 2 3 3 2 4 6 6 5 5 8 7 6 5 4 3 1 3 3 2 7 11 12 12 4
28 24 23 17 14 11 12 12 11 11 9 8 6 5 4 3 1 1 2 4 6 10 11 9 8 8 8 11 10 12 12 10 7 2 4 6 6 6 4 11 8 13 2
31 26 21 15 12 11 11 10 9 8 6 6 5 4 3 2 2 2 4 6 8 9 10 12 14 15 13 14 12 14 16 15 11 6 11 4 8 21 13 12 14 9 9
33 30 21 14 10 9 8 8 7 6 6 5 5 4 4 5 6 8 10 11 13 14 15 15 17 18 18 17 17 15 15 15 13 12 9 4 12 25 20 15 13 13 13
25 26 22 15 11 9 7 7 7 6 5 6 7 7 10 11 11 12 13 14 17 20 21 22 22 23 23 22 21 21 20 18 14 11 3 12 15 20 24 21 17 14 13
26 26 19 13 11 10 8 8 9 9 10 9 9 8 9 11 12 13 15 17 18 20 23 23 22 23 24 26 26 26 25 23 17 9 19 29 30 25 26 26 23 21 22
24 20 18 15 12 9 8 9 10 10 10 10 11 10 9 8 9 10 13 15 18 19 21 23 24 23 23 24 27 28 29 27 24 17 18 19 17 34 30 28 26 26 25
22 26 16 15 11 9 9 9 9 11 11 13 14 14 12 12 12 12 13 16 19 19 19 21 22 22 23 24 25 26 27 27 24 19 23 24 29 38 34 30 29 30 30
24 24 19 18 14 11 11 9 9 10 13 16 17 17 16 15 19 18 14 13 21 20 19 20 20 19 19 21 25 27 28 26 24 20 23 24 35 41 38 35 34 32 32
25 21 18 16 11 11 4 9 7 7 10 14 18 20 19 21 30 27 21 28 23 18 18 19 20 21 21 21 23 28 27 21 15 16 25 32 37 42 39 38 40 39 36
23 23 21 16 15 15 7 7 3 9 15 20 23 21 14 12 12 13 26 29 25 20 17 16 18 20 16 16 29 30 23 7 17 20 20 36 40 46 41 41 43 44 43
27 25 23 19 16 14 9 5 3 6 3 4 4 5 8 16 10 19 16 32 28 29 20 26 21 23 20 17 23 25 18 17 19 19 25 35 43 45 41 39 42 45 46
29 27 21 20 16 12 10 4 2 5 6 9 8 4 11 10 9 15 17 19 20 25 17 23 24 23 19 19 18 18 20 21 18 20 28 36 43 44 37 36 40 43 44
31 28 25 17 15 16 9 4 7 4 6 10 7 11 10 13 14 15 16 18 18 17 21 17 19 22 25 21 22 22 23 22 21 23 26 40 45 46 38 35 36 40 43
30 29 23 22 17 13 13 10 6 10 11 13 16 14 17 17 18 18 20 21 22 20 23 23 24 24 23 23 23 24 25 26 28 28 30 35 50 51 43 41 38 36 37
30 29 24 24 22 20 14 13 12 14 15 15 17 21 17 21 21 25 23 25 27 26 25 25 26 27 23 23 24 25 26 28 30 32 33 34 40 49 42 41 43 40 35
32 28 28 26 24 20 18 18 13 17 18 20 21 23 26 30 28 27 28 31 31 29 28 30 26 28 27 27 28 29 29 31 31 32 34 33 33 41 40 39 37 47 41
32 31 29 24 25 22 20 17 18 19 17 21 26 24 30 34 35 29 32 31 32 34 32 34 33 31 31 31 31 32 33 33 33 34 34 32 30 30 34 36 35 31 48
34 31 31 28 27 24 20 20 21 20 20 23 29 30 29 24 29 32 35 35 38 39 35 39 40 36 36 37 36 37 37 38 37 36 34 32 33 32 30 31 38 40 39
37 35 32 29 26 27 25 22 17 17 23 24 27 28 30 32 32 33 36 37 40 37 41 39 46 43 41 42 42 43 39 39 37 32 33 32 32 28 28 28 28 31 32
38 37 33 29 29 25 21 16 19 23 24 22 25 19 21 26 30 32 32 38 39 38 38 42 44 50 47 44 45 40 36 40 38 36 29 29 27 26 29 26 25 26 29
37 30 29 28 29 27 22 18 18 16 21 27 28 24 20 15 27 26 26 30 34 38 42 48 51 54 50 43 47 43 41 38 34 29 21 27 27 27 28 29 26 26 31
41 31 40 30 36 29 22 18 19 21 22 20 11 14 10 20 27 26 27 29 33 38 41 46 48 55 54 52 47 37 21 34 17 26 27 29 31 33 35 32 30 31 28
36 29 32 42 41 23 21 15 15 22 19 19 28 26 21 30 29 28 28 37 37 39 46 44 45 47 50 54 50 43 45 41 38 33 27 25 38 33 34 36 35 32 34
40 42 53 38 7 8 13 6 12 19 21 24 27 31 30 36 30 33 29 42 50 42 51 50 51 50 46 47 52 51 45 42 43 34 37 34 26 33 36 42 34 36 37
17 25 24 16 12 15 7 12 22 22 23 27 32 34 38 34 41 46 28 30 53 52 50 47 44 48 44 44 53 50 48 38 32 34 38 37 36 34 35 34 39 36 38
Wind_Direction_850mb
141 143 131 125 115 109 116 118 112 100 82 68 66 76 86 86 74 66 117 197 216 234 273 326 309 286 276 266 256 255 261 280 292 300 44 58 353 188 133 119 139 140 242
149 146 137 127 114 100 92 94 99 102 103 105 91 80 75 70 71 291 255 259 268 276 277 271 279 283 281 265 254 250 253 251 259 283 32 58 341 286 187 159 196 171 179
151 150 141 130 121 115 111 107 97 91 80 67 56 46 44 30 340 281 269 272 269 267 278 283 288 290 292 283 255 244 249 251 246 209 105 76 232 297 248 193 198 201 204
156 151 153 134 124 113 100 88 75 53 34 15 4 352 336 318 307 300 296 295 293 294 291 290 289 290 288 281 276 267 258 253 239 210 155 249 245 278 250 214 205 203 199
144 149 153 141 133 126 103 74 51 28 5 348 335 321 311 307 306 305 303 300 302 304 304 301 298 293 286 281 279 277 269 258 246 212 339 235 209 256 256 229 210 214 203
140 139 152 146 145 127 97 64 50 39 32 20 9 352 332 319 307 302 305 310 312 313 314 310 307 303 297 290 280 271 268 267 259 240 268 245 206 254 251 233 227 218 208
156 147 158 159 150 120 90 83 81 71 61 46 33 25 15 1 339 326 317 311 308 309 306 304 305 304 302 296 293 287 277 268 257 264 249 251 259 257 250 240 232 226 218
156 156 169 159 146 125 106 93 79 67 49 38 33 31 25 13 1 349 335 327 322 315 309 307 306 305 301 301 297 293 288 278 263 269 258 256 252 253 253 246 235 230 231
165 167 162 157 154 138 112 87 73 54 46 40 34 29 20 17 9 13 358 348 326 311 308 308 307 309 306 305 302 299 295 292 281 258 252 256 252 255 254 243 241 238 231
179 181 174 175 156 149 82 67 74 56 40 32 31 27 32 24 7 3 12 335 325 310 293 294 300 303 308 316 332 332 312 295 307 260 255 250 253 256 253 246 242 241 241
189 182 180 179 177 162 190 284 23 14 13 13 9 6 37 18 338 345 299 334 339 335 322 321 316 323 336 352 329 338 345 333 274 265 262 251 252 260 260 246 243 242 241
190 186 186 180 181 176 172 220 142 278 313 325 299 298 27 293 306 340 323 339 348 350 349 347 344 354 353 335 311 322 327 286 279 270 263 268 270 271 263 251 247 244 241
193 187 194 185 173 186 204 167 244 278 257 285 284 315 298 324 295 331 324 327 327 326 351 322 318 325 290 294 291 284 281 284 281 270 272 275 279 281 263 253 252 251 247
194 193 193 201 188 181 215 199 238 294 290 302 246 287 295 321 297 306 312 306 312 309 308 312 305 294 300 293 289 282 282 280 278 273 266 289 285 284 266 256 252 251 250
197 199 198 201 196 213 200 226 250 265 287 267 289 274 282 296 290 301 295 303 297 300 303 299 300 298 297 293 288 283 280 282 281 280 275 272 283 285 279 256 250 249 250
198 200 200 207 207 203 205 225 256 280 286 296 280 272 272 289 287 287 294 296 291 287 287 286 291 291 294 290 284 282 282 283 282 279 277 277 276 280 292 272 253 247 245
203 208 207 203 211 224 240 252 261 270 281 284 281 284 282 277 289 278 290 290 281 274 275 288 288 290 291 288 284 283 284 285 286 281 280 279 278 284 286 291 274 250 242
209 210 208 209 219 233 227 233 254 265 275 283 291 287 289 296 288 299 296 291 282 274 278 274 274 279 282 281 282 281 280 280 282 283 280 275 274 272 281 281 285 277 249
207 206 208 208 212 225 235 242 257 267 284 294 283 289 300 290 299 291 294 291 284 270 270 269 266 268 275 278 279 281 281 279 279 281 275 269 269 269 268 272 278 276 275
206 207 210 209 215 220 231 250 266 268 271 279 300 294 281 295 297 297 295 294 291 275 272 267 267 263 272 275 277 281 283 279 276 274 274 268 268 260 259 265 270 274 283
209 209 210 214 212 221 233 251 256 267 278 294 300 313 303 298 296 296 297 290 291 287 280 271 273 273 271 265 271 271 280 274 270 269 267 260 258 250 252 258 261 261 268
209 215 221 226 223 222 225 240 256 274 290 289 281 283 295 289 308 303 299 297 295 293 292 289 286 273 268 264 269 275 277 280 268 239 254 255 253 251 246 258 254 253 237
215 206 227 220 225 217 213 230 257 275 283 281 268 302 258 316 300 300 298 298 300 299 292 287 283 283 274 267 260 260 269 270 264 266 262 254 251 251 247 240 245 265 262
220 223 227 231 218 202 222 229 260 289 296 288 291 282 294 297 278 285 287 295 293 300 291 288 287 278 278 267 265 254 257 263 281 281 263 244 255 246 252 250 258 254 259
202 230 256 249 199 252 199 256 285 280 292 296 293 296 296 292 289 295 277 295 300 310 295 282 279 281 277 265 261 258 254 253 253 257 267 259 252 265 257 249 248 255 251
209 261 211 222 207 171 196 272 276 263 280 288 285 288 293 289 301 300 288 293 295 301 295 287 286 284 286 268 259 257 248 249 250 253 251 258 268 264 267 262 246 251 253